Skip Page Navigation
NASA JPL Caltech
NASA Logo - Jet Propulsion Laboratory + View the NASA Portal
+ Center for Near-Earth Object Studies
JPL Home Earth Solar System Stars & Galaxies Technology
JPL Solar System Dynamics
BODIES ORBITS EPHEMERIDES TOOLS PHYSICAL DATA DISCOVERY FAQ SITE MAP
IMPORTANT: The SSD Announcement email list is now available. Major changes are coming in the near future, including possible hostname and/or URL changes. To be notified of such changes, subscribe to this email list.

Please visit this page for more details.


JPL Small-Body Database Browser
Search: [ help ]  
226647 (2004 FP92)
Classification: Main-belt Asteroid          SPK-ID: 2226647
Ephemeris | Orbit Diagram | Orbital Elements | Mission Design | Physical Parameters | Discovery Circumstances ]

[ show orbit diagram ]
Orbital Elements at Epoch 2458600.5 (2019-Apr-27.0) TDB
Reference: JPL 12 (heliocentric ecliptic J2000)
 Element Value Uncertainty (1-sigma)   Units 
e .164879983918961 7.5522e-08  
a 2.235024620674569 1.1579e-08 au
q 1.866513797159264 1.6874e-07 au
i .8026677367141631 7.4232e-06 deg
node 334.3266046915272 0.00041942 deg
peri 215.108189241508 0.00041984 deg
M 184.8877275888955 1.9035e-05 deg
tp 2459194.157525319856
(2020-Dec-10.65752532)
6.7196e-05 TDB
period 1220.455346575672
3.34
9.4846e-06
2.597e-08
d
yr
n .2949718734160004 2.2923e-09 deg/d
Q 2.603535444189874 1.3489e-08 au
  Orbit Determination Parameters
   # obs. used (total)      166  
   data-arc span      9365 days (25.64 yr)  
   first obs. used      1994-04-06  
   last obs. used      2019-11-26  
   planetary ephem.      DE431  
   SB-pert. ephem.      SB431-N16  
   condition code      0  
   norm. resid. RMS      .56779  
   source      ORB  
   producer      Otto Matic  
   solution date      2019-Dec-04 17:28:06  

Additional Information
 Earth MOID = .867462 au 
 Jupiter MOID = 2.35534 au 
 T_jup = 3.621 
[ show covariance matrix ]

Ephemeris | Orbit Diagram | Orbital Elements | Mission Design | Physical Parameters | Discovery Circumstances ]

Physical Parameter Table
Parameter Symbol Value Units Sigma Reference Notes
absolute magnitude H 17.9   n/a MPO454627  

226647 (2004 FP92)          Discovered 2004-Mar-18 by LINEAR at Socorro
Reference: 20091202/Numbers.arcLast Updated: 2009-12-04
Ephemeris | Orbit Diagram | Orbital Elements | Mission Design | Physical Parameters | Discovery Circumstances ]
ABOUT SSD CREDITS/AWARDS PRIVACY/COPYRIGHT GLOSSARY LINKS
FirstGov 2019-Dec-14 00:32 UT
(server date/time)  
NASA Home Page
Site Manager:   Ryan S. Park
Webmaster  Alan B. Chamberlin